Wetbulb
45.44 40.41 37.50 39.54 40.95 40.24 39.63 40.17 40.74 44.90 48.38 47.32 46.07 46.38 48.86 51.49 51.81 53.85 54.43 54.67 56.36 57.61 60.01 61.38 61.23 60.10 58.81 58.77 58.88 59.59 60.12 61.52 62.93 63.75 61.48 59.83 56.63 54.09 51.82 50.92 50.39 49.60 49.72 49.81
41.41 37.24 41.53 43.17 43.11 41.60 40.42 38.20 39.20 44.90 47.56 47.16 46.39 45.56 48.63 51.03 51.16 54.31 54.72 54.58 55.36 57.35 58.57 59.87 60.40 60.25 59.32 58.54 59.38 60.47 61.70 62.60 63.44 63.78 63.27 59.14 55.58 51.04 48.69 47.51 47.06 47.26 47.04 47.21
37.57 39.99 43.60 42.04 40.38 37.59 36.35 38.52 39.87 41.40 46.20 47.09 46.06 43.64 45.83 49.71 51.97 53.23 55.88 56.38 56.27 56.36 57.06 58.99 60.02 60.41 60.12 59.27 59.85 61.27 62.16 62.74 62.31 60.23 57.53 53.62 51.57 49.18 45.91 44.81 43.98 44.15 44.67 44.62
39.15 42.92 42.72 41.39 38.77 38.43 33.06 42.01 39.84 41.83 42.24 36.63 45.29 34.92 43.12 46.50 48.66 52.14 54.19 55.69 56.40 56.98 58.14 59.67 59.42 55.81 54.74 53.70 55.21 56.60 57.58 59.92 59.32 58.43 55.80 53.39 50.53 46.76 44.98 43.46 42.24 41.96 42.53 42.44
36.36 38.36 40.80 39.68 40.07 42.24 38.98 42.29 40.33 39.47 40.89 39.92 40.99 38.32 41.62 45.84 44.90 49.22 51.68 54.92 55.84 57.40 57.85 57.75 53.13 51.64 51.16 51.27 50.94 51.66 51.71 51.42 56.50 56.68 54.66 50.14 46.33 45.39 44.06 42.52 41.26 40.21 39.91 40.42
38.98 42.85 41.36 41.36 44.17 44.74 44.18 42.09 41.44 39.52 35.15 31.22 38.05 37.85 37.70 42.65 45.17 47.76 51.93 54.35 55.88 57.31 56.00 51.64 50.51 49.87 48.76 48.86 47.77 46.54 45.23 44.51 48.66 49.54 48.70 47.00 45.25 43.84 42.89 41.95 40.67 40.29 39.62 39.56
36.69 37.47 41.03 42.76 41.45 44.18 43.36 37.65 30.21 28.97 29.10 29.90 38.76 35.70 38.88 44.80 46.13 46.71 51.12 53.56 55.70 56.00 50.61 49.20 48.45 47.10 46.64 45.57 43.75 43.86 43.25 41.09 42.56 43.43 44.08 44.57 44.44 43.79 42.14 41.12 40.31 38.82 38.25 37.87
26.14 25.63 38.37 42.67 41.81 39.43 40.15 37.38 32.02 27.07 28.00 30.83 37.89 32.28 39.07 45.91 45.57 48.04 48.08 53.96 52.48 49.27 49.10 48.38 46.88 45.92 43.32 42.57 41.88 41.36 40.74 39.83 40.50 40.78 40.79 40.57 40.98 40.52 39.04 39.43 38.23 37.58 37.22 37.13
28.67 29.74 41.41 42.71 43.60 42.77 39.98 36.68 39.49 32.80 31.49 30.35 33.73 38.49 43.34 44.52 45.98 48.65 49.40 49.23 48.11 47.66 47.06 45.61 44.22 42.39 41.83 40.83 40.37 41.23 40.75 39.09 39.32 39.16 39.43 39.13 39.15 38.52 37.24 36.81 37.19 36.80 37.16 36.85
34.80 28.59 38.47 41.22 42.91 43.86 41.15 41.92 33.50 33.56 26.05 25.67 32.93 33.02 36.28 40.28 42.17 46.22 45.82 45.63 46.29 44.73 43.39 43.14 42.54 41.46 41.08 40.43 39.50 39.19 39.00 38.56 38.13 38.00 37.83 37.25 37.23 37.40 37.31 37.06 36.03 35.85 35.48 35.25
36.88 32.99 32.82 38.62 36.00 33.59 38.61 37.21 38.24 37.57 34.03 29.39 28.54 31.93 35.62 39.59 42.41 44.26 44.65 44.47 43.23 42.12 41.60 41.67 41.92 41.34 39.48 39.54 39.06 38.41 38.40 37.78 37.12 37.22 37.72 37.92 37.53 37.43 37.15 35.90 34.64 33.05 32.77 32.32
35.54 34.13 25.98 32.46 37.16 39.36 37.77 37.68 38.59 30.95 29.56 31.04 31.44 33.17 38.65 38.96 43.10 43.94 42.57 41.29 40.11 40.30 40.08 39.43 39.15 39.61 39.11 39.04 38.98 38.37 38.33 38.45 38.88 38.98 38.16 36.86 35.76 34.44 32.54 32.01 31.71 31.46 30.54 31.14
35.05 29.59 19.53 28.87 34.90 38.44 36.00 38.10 39.81 37.49 33.61 28.26 28.90 31.81 39.10 42.39 42.49 43.47 41.01 40.11 39.39 39.17 38.72 38.64 38.85 38.51 38.46 38.78 39.37 39.26 39.78 39.74 39.06 37.64 34.90 33.43 32.83 32.04 30.95 30.32 30.47 30.26 29.79 29.95
38.34 32.59 27.71 27.65 31.04 35.17 34.05 35.47 38.97 37.91 30.10 29.95 32.35 31.89 36.27 39.43 39.85 40.41 40.17 39.70 38.81 38.92 38.94 38.75 39.19 39.85 40.67 41.18 40.24 39.52 38.57 37.48 35.49 33.87 32.98 31.94 31.58 31.13 30.33 30.12 30.01 29.87 29.58 28.58
34.73 28.66 29.57 32.78 34.15 34.09 35.29 35.76 37.65 36.86 37.44 31.62 34.04 32.53 35.36 39.66 39.89 40.42 40.24 39.52 39.41 39.43 39.03 39.43 40.53 42.16 41.74 40.56 40.03 38.11 36.20 34.52 33.97 33.00 32.37 31.57 31.05 30.56 29.81 28.73 28.02 27.43 27.36 27.47
34.39 26.78 31.96 29.57 34.15 32.76 31.94 34.58 37.30 37.66 38.06 36.19 35.37 33.22 36.93 41.33 41.33 40.59 40.42 40.26 40.20 40.60 40.94 42.54 43.34 42.78 41.81 40.87 38.14 36.36 34.66 33.72 33.64 32.54 31.62 30.87 29.49 28.35 27.51 26.97 26.73 26.40 26.03 25.46
30.04 28.45 29.15 20.19 30.22 30.08 21.93 31.45 36.65 37.75 38.83 38.47 33.44 34.58 36.89 38.96 40.21 40.47 40.77 41.40 41.28 41.95 42.73 43.42 43.68 43.25 42.18 40.37 38.14 34.87 33.89 32.80 31.72 30.65 29.56 28.70 27.84 27.14 26.50 26.09 25.50 25.16 24.52 24.65
27.88 28.15 29.89 22.70 26.86 14.56 28.40 32.66 37.90 38.74 40.04 37.50 36.65 36.97 37.39 37.63 37.67 40.87 41.98 41.95 42.14 43.48 44.24 44.38 44.44 42.72 39.84 37.93 36.36 35.22 32.54 31.26 30.12 29.30 28.33 27.83 26.78 26.15 25.57 24.71 24.31 23.97 23.69 23.19
30.84 28.62 27.08 22.61 22.76 24.30 26.13 32.93 37.16 36.94 36.90 37.80 36.72 36.73 35.90 37.09 37.54 36.91 39.24 42.21 44.09 44.97 45.25 44.56 43.81 40.94 37.22 37.58 35.81 33.31 31.46 29.70 28.88 28.24 27.42 26.55 25.96 25.18 24.34 23.51 22.85 22.66 22.48 22.15
30.36 30.73 26.85 27.03 15.58 15.32 26.47 33.53 37.60 40.51 31.48 32.56 37.61 37.20 35.09 36.11 33.46 34.38 37.02 37.24 36.76 37.52 40.39 42.52 41.52 38.23 37.23 34.47 33.24 31.68 30.92 29.34 28.07 27.59 27.02 26.02 25.58 24.81 23.46 23.22 22.44 22.47 21.90 22.76
26.97 28.60 25.30 26.30 18.26 22.12 26.76 31.58 35.99 29.47 29.97 31.50 34.86 37.27 35.79 34.94 34.16 33.76 34.25 32.40 32.21 32.19 33.04 33.82 34.31 33.91 32.76 31.03 30.52 29.76 28.60 28.08 28.29 27.38 26.08 24.28 24.11 23.27 23.25 22.28 21.18 20.32 19.94 21.13
27.62 25.95 19.09 24.28 11.84 16.64 27.99 32.72 32.43 31.35 31.76 32.44 34.83 35.56 33.84 32.93 32.47 32.20 32.17 31.11 31.21 31.05 31.14 31.10 31.18 30.89 29.76 29.67 29.52 28.73 27.82 27.01 24.67 23.42 22.54 21.18 19.71 21.97 21.77 18.66 17.79 17.73 17.82 16.80
25.29 25.63 24.03 25.79 23.91 26.39 27.63 28.71 30.32 31.31 31.25 32.23 33.20 33.62 34.36 32.75 31.78 31.84 30.91 30.52 29.97 29.72 29.46 29.72 29.67 28.99 27.93 25.42 26.17 25.60 24.99 23.57 20.10 18.43 17.66 16.92 17.04 19.47 19.50 17.12 17.14 15.52 15.31 15.40
25.56 26.53 22.67 23.13 24.78 25.33 27.51 29.09 29.30 30.86 30.90 31.54 32.47 33.24 32.98 31.86 31.62 30.53 30.10 29.58 29.47 29.35 28.84 27.84 24.85 23.79 23.43 22.74 24.63 25.04 22.96 21.09 19.01 18.28 16.74 15.59 15.88 16.26 16.01 19.37 18.32 16.61 15.02 14.97
25.53 26.02 23.87 22.98 24.92 26.00 27.99 28.16 28.70 28.94 29.38 29.70 30.08 31.04 31.16 31.21 30.62 30.03 29.33 29.22 29.06 28.82 25.56 22.89 22.69 22.27 22.33 20.75 20.38 18.37 19.25 17.48 17.24 16.95 16.69 16.13 16.47 14.77 15.80 17.45 17.98 18.20 18.46 18.42
27.34 25.61 24.15 22.53 26.05 26.67 27.67 28.08 29.16 28.77 28.58 28.95 29.46 28.62 28.58 29.47 29.27 28.59 27.84 27.11 26.38 24.28 21.89 21.19 19.35 18.49 19.85 16.62 18.20 17.13 13.88 15.55 15.26 16.69 15.67 16.60 16.80 15.62 16.23 15.79 16.32 22.73 24.34 24.11
MSLP
1011.58 1012.16 1011.69 1012.26 1012.80 1013.27 1013.22 1012.57 1010.86 1009.89 1009.32 1009.97 1009.96 1009.71 1009.42 1009.58 1010.08 1010.83 1011.16 1011.89 1012.35 1012.49 1012.76 1013.18 1013.66 1014.17 1014.80 1015.28 1015.88 1016.31 1016.87 1017.41 1017.86 1018.33 1019.12 1019.87 1020.75 1021.49 1021.97 1022.34 1022.52 1022.60 1022.74 1022.79
1011.54 1011.37 1011.46 1011.87 1012.63 1012.53 1013.36 1012.59 1011.27 1009.67 1009.40 1009.33 1009.72 1009.81 1009.81 1009.62 1009.68 1009.82 1010.40 1011.45 1012.07 1012.59 1012.91 1013.32 1013.74 1014.15 1014.77 1015.35 1015.85 1016.28 1016.73 1017.20 1017.67 1018.10 1018.91 1019.61 1020.64 1021.91 1022.60 1023.07 1023.26 1023.33 1023.31 1023.41
1011.20 1011.30 1011.01 1011.72 1011.88 1012.72 1013.66 1012.60 1011.14 1010.15 1009.48 1009.56 1010.10 1010.32 1009.97 1009.42 1009.25 1009.57 1010.02 1010.46 1011.70 1011.75 1012.68 1013.29 1013.69 1014.08 1014.74 1015.37 1015.87 1016.26 1016.61 1016.98 1017.43 1017.98 1018.98 1020.13 1021.21 1022.26 1023.10 1023.66 1023.99 1024.22 1024.06 1024.06
1011.30 1010.86 1010.60 1011.11 1011.71 1013.11 1013.52 1012.51 1011.77 1010.64 1009.70 1009.78 1010.17 1009.74 1009.96 1009.34 1009.27 1009.30 1009.59 1010.23 1011.25 1011.79 1012.68 1013.30 1013.87 1014.64 1015.09 1015.84 1016.11 1016.37 1016.79 1017.29 1017.71 1018.26 1019.05 1019.90 1021.03 1022.21 1023.54 1024.08 1024.59 1024.75 1024.73 1024.76
1011.79 1011.29 1010.99 1010.88 1011.32 1012.13 1012.40 1012.30 1011.98 1011.30 1010.61 1010.54 1010.21 1009.96 1008.59 1008.93 1009.04 1008.99 1009.37 1009.94 1010.92 1011.44 1012.48 1013.71 1014.47 1015.28 1016.18 1016.49 1016.85 1017.22 1017.57 1017.99 1018.15 1018.81 1019.29 1020.24 1021.46 1022.51 1023.65 1024.33 1024.82 1025.30 1025.38 1025.37
1011.99 1011.90 1011.60 1011.19 1010.96 1011.33 1012.17 1011.95 1011.68 1011.75 1011.61 1011.36 1010.28 1010.03 1008.94 1007.96 1007.96 1008.56 1008.96 1009.71 1010.55 1011.28 1012.87 1014.37 1015.02 1015.92 1016.84 1017.34 1017.59 1018.27 1018.40 1019.10 1018.99 1019.32 1019.87 1020.50 1021.49 1022.74 1023.63 1024.35 1024.87 1025.40 1025.74 1026.00
1012.03 1011.59 1011.29 1011.17 1010.76 1011.44 1011.67 1011.61 1011.95 1012.14 1012.04 1011.48 1010.63 1010.63 1009.45 1008.54 1008.08 1008.11 1008.44 1009.53 1010.60 1011.54 1012.56 1014.33 1015.62 1016.31 1017.25 1018.03 1018.56 1019.20 1019.48 1020.09 1020.01 1020.17 1020.69 1021.27 1021.94 1022.78 1023.59 1024.14 1024.75 1025.29 1025.67 1026.06
1011.98 1012.16 1011.63 1011.18 1010.82 1010.90 1011.23 1010.96 1011.72 1011.43 1011.56 1011.36 1010.80 1010.53 1009.48 1008.65 1008.72 1008.36 1008.54 1009.79 1011.19 1012.73 1014.04 1015.42 1016.27 1017.01 1017.79 1018.54 1019.24 1020.19 1020.50 1020.74 1020.88 1021.09 1021.63 1022.04 1022.68 1023.50 1024.18 1024.85 1025.33 1025.71 1026.18 1026.16
1012.20 1011.74 1011.59 1011.33 1011.13 1011.01 1010.92 1011.09 1011.11 1011.48 1011.79 1011.43 1011.20 1010.80 1009.79 1009.62 1009.80 1009.61 1010.44 1011.18 1012.57 1013.75 1015.15 1015.75 1017.16 1018.01 1018.96 1019.49 1020.31 1020.98 1021.07 1021.44 1021.59 1021.85 1022.23 1022.73 1023.35 1023.92 1024.32 1024.80 1025.23 1025.84 1026.18 1026.50
1012.73 1012.53 1012.21 1011.90 1011.80 1011.22 1010.76 1010.80 1011.23 1011.44 1011.76 1011.67 1011.45 1010.81 1010.23 1010.14 1010.68 1010.88 1012.06 1012.63 1013.81 1014.91 1015.97 1016.90 1017.78 1018.85 1019.93 1020.44 1021.32 1021.67 1021.47 1022.06 1022.34 1022.56 1022.99 1023.49 1023.91 1024.25 1024.73 1025.18 1025.78 1025.95 1026.18 1026.61
1013.28 1013.34 1012.93 1012.29 1012.42 1012.35 1011.43 1011.13 1011.17 1011.12 1011.51 1011.64 1011.44 1011.11 1010.61 1010.30 1010.69 1011.64 1012.58 1013.78 1014.76 1015.82 1016.95 1017.86 1018.77 1019.50 1020.48 1021.14 1021.69 1021.91 1022.16 1022.44 1022.91 1023.31 1023.75 1024.08 1024.41 1024.80 1025.18 1025.41 1025.85 1026.05 1026.47 1026.80
1014.07 1013.61 1013.74 1013.94 1013.64 1013.34 1012.76 1012.02 1011.33 1011.33 1011.93 1011.78 1011.32 1011.23 1010.56 1010.31 1010.90 1011.81 1013.28 1014.68 1015.82 1016.62 1017.46 1018.30 1019.20 1020.04 1020.74 1021.45 1021.89 1022.07 1022.58 1022.84 1023.21 1023.78 1024.23 1024.59 1024.73 1025.08 1025.24 1025.60 1025.98 1026.29 1026.78 1027.07
1015.20 1014.45 1014.49 1014.17 1014.22 1013.88 1012.99 1012.47 1011.95 1011.72 1011.75 1012.02 1011.81 1011.69 1010.66 1010.58 1011.60 1012.67 1013.93 1015.44 1016.52 1017.22 1018.10 1018.84 1019.36 1020.10 1020.81 1021.34 1021.76 1022.05 1022.45 1022.63 1023.26 1023.64 1024.25 1024.92 1025.11 1025.11 1025.61 1025.68 1026.10 1026.52 1027.02 1027.27
1015.81 1015.46 1015.34 1015.09 1014.79 1014.35 1013.61 1013.11 1012.44 1012.31 1012.48 1012.10 1011.69 1011.65 1011.61 1011.67 1012.42 1013.54 1014.72 1015.70 1016.68 1017.66 1018.30 1018.77 1019.50 1020.09 1020.78 1021.32 1021.90 1022.47 1022.78 1023.10 1023.65 1023.95 1024.56 1024.79 1025.00 1025.07 1025.46 1025.93 1026.46 1026.77 1027.05 1027.41
1016.49 1016.28 1015.82 1015.67 1015.27 1014.93 1014.02 1013.48 1012.97 1012.53 1012.43 1012.28 1011.79 1011.52 1011.61 1011.99 1012.67 1013.83 1014.71 1015.97 1016.96 1017.71 1018.30 1018.92 1019.52 1020.09 1020.91 1021.50 1022.00 1022.53 1022.99 1023.34 1023.81 1024.09 1024.44 1024.76 1024.65 1025.04 1025.76 1026.53 1026.93 1027.03 1027.33 1027.60
1017.27 1016.86 1016.26 1016.08 1015.66 1015.25 1014.23 1013.50 1013.14 1012.98 1012.61 1012.32 1012.01 1012.15 1012.15 1012.34 1013.24 1014.47 1015.16 1015.97 1016.57 1017.26 1018.07 1018.78 1019.44 1020.15 1020.71 1021.32 1021.79 1022.32 1022.93 1023.41 1023.74 1024.13 1024.60 1024.73 1024.99 1025.47 1026.04 1026.71 1026.94 1027.31 1027.56 1027.77
1018.81 1017.82 1017.39 1016.95 1016.28 1015.71 1014.69 1013.28 1012.98 1012.82 1012.80 1012.84 1012.35 1012.26 1012.39 1013.02 1013.68 1014.35 1015.14 1015.86 1016.37 1017.00 1017.77 1018.56 1019.12 1019.69 1020.34 1020.85 1021.30 1022.10 1022.71 1023.44 1023.89 1024.20 1024.43 1024.87 1025.25 1025.59 1026.10 1026.47 1027.03 1027.35 1027.50 1027.51
1019.88 1018.79 1018.01 1017.56 1016.88 1016.04 1014.07 1013.04 1012.62 1012.66 1012.85 1012.77 1012.65 1012.84 1012.95 1013.37 1013.92 1014.26 1014.93 1015.56 1016.24 1016.83 1017.57 1018.13 1018.72 1019.46 1020.00 1020.37 1021.17 1021.77 1022.57 1023.18 1023.73 1024.20 1024.52 1024.78 1025.21 1025.70 1026.19 1026.22 1026.74 1027.16 1027.32 1027.50
1020.43 1019.71 1018.77 1018.21 1017.57 1015.82 1014.37 1013.69 1013.06 1012.77 1013.23 1013.26 1013.22 1013.58 1013.88 1014.05 1014.30 1015.25 1015.53 1015.92 1016.29 1016.76 1017.45 1017.96 1018.51 1019.17 1019.72 1020.39 1020.93 1021.55 1022.42 1023.08 1023.53 1023.85 1024.34 1024.58 1024.94 1025.54 1025.97 1026.15 1026.70 1026.91 1027.19 1027.41
1020.31 1019.91 1019.86 1018.74 1017.92 1016.24 1014.90 1014.05 1013.39 1012.96 1013.83 1013.81 1013.48 1013.96 1014.25 1014.85 1015.35 1016.36 1016.58 1016.98 1017.47 1017.69 1017.87 1018.07 1018.25 1018.80 1019.60 1020.31 1020.96 1021.69 1022.32 1023.04 1023.40 1023.57 1023.99 1024.37 1024.79 1025.38 1025.72 1026.21 1026.36 1026.59 1026.86 1027.07
1019.99 1020.04 1019.42 1018.81 1018.21 1016.67 1015.52 1014.85 1013.94 1014.27 1015.34 1014.56 1014.42 1014.26 1014.95 1015.81 1016.55 1017.12 1017.54 1017.97 1018.29 1018.54 1018.76 1019.01 1019.36 1019.90 1020.36 1020.96 1021.54 1022.25 1022.57 1022.88 1023.15 1023.62 1024.04 1024.45 1024.79 1025.19 1025.56 1025.99 1026.04 1026.28 1026.74 1026.94
1018.89 1018.99 1019.22 1018.96 1018.52 1017.68 1016.50 1015.78 1015.51 1015.99 1015.39 1015.23 1014.99 1015.13 1016.15 1016.68 1017.36 1017.79 1018.38 1018.87 1019.20 1019.49 1019.82 1020.02 1020.31 1020.64 1020.86 1021.17 1021.71 1022.35 1022.69 1022.79 1023.32 1023.74 1024.13 1024.51 1024.77 1025.13 1025.42 1025.64 1025.97 1026.25 1026.63 1027.00
1019.05 1018.51 1017.93 1018.27 1018.36 1018.03 1017.54 1017.28 1016.91 1016.72 1016.63 1016.35 1016.17 1016.40 1016.89 1017.65 1018.22 1018.80 1019.37 1019.79 1020.14 1020.47 1020.76 1020.90 1021.09 1021.42 1021.71 1022.00 1022.37 1022.85 1022.90 1023.14 1023.69 1024.13 1024.47 1024.55 1024.76 1025.01 1025.23 1025.51 1025.87 1026.39 1026.46 1026.56
1019.02 1018.43 1018.33 1018.53 1018.58 1018.35 1018.18 1017.95 1017.80 1017.52 1017.49 1017.52 1017.36 1017.53 1017.93 1018.38 1019.01 1019.69 1020.25 1020.75 1020.96 1021.19 1021.44 1021.65 1022.01 1022.22 1022.44 1022.49 1022.71 1022.85 1022.90 1022.99 1023.62 1024.22 1024.42 1024.58 1024.86 1024.94 1024.97 1025.18 1025.51 1025.61 1025.74 1025.94
1019.53 1019.21 1019.28 1019.50 1019.31 1019.24 1019.10 1019.02 1018.81 1018.87 1018.78 1018.74 1018.90 1018.94 1019.19 1019.28 1020.10 1020.62 1021.26 1021.59 1021.95 1022.19 1022.47 1022.57 1022.98 1023.07 1022.92 1022.84 1023.03 1022.92 1022.94 1023.30 1023.93 1024.02 1023.97 1024.17 1024.45 1024.68 1024.73 1024.69 1024.56 1024.47 1024.29 1024.41
1020.49 1020.29 1020.15 1020.24 1019.91 1019.87 1020.00 1019.91 1019.88 1019.97 1020.18 1020.20 1020.19 1020.40 1020.56 1020.54 1021.13 1021.55 1022.19 1022.50 1022.70 1022.89 1023.05 1023.32 1023.38 1023.46 1023.37 1023.28 1023.35 1023.20 1023.24 1023.32 1023.77 1023.83 1023.82 1023.74 1023.89 1023.95 1024.00 1023.99 1023.69 1023.28 1023.06 1023.26
Wind_Speed
11 8 11 10 11 5 8 14 13 17 13 19 20 12 5 7 6 15 15 13 12 9 8 9 8 11 9 10 12 11 10 8 6 6 6 5 5 6 7 7 8 9 8 9
4 12 7 10 9 2 12 17 16 14 11 17 15 17 16 9 8 16 17 14 14 12 8 8 8 13 11 11 12 11 10 10 7 7 5 5 6 7 7 6 8 8 9 8
3 3 9 10 7 3 5 6 5 8 9 7 10 13 18 12 4 8 12 15 13 17 16 12 15 14 11 8 10 10 9 9 6 11 10 10 10 7 5 5 5 6 8 9
4 3 8 12 11 9 4 2 10 2 9 5 11 5 26 22 8 12 12 14 14 15 12 12 12 9 11 8 8 10 8 10 10 12 11 13 8 8 4 5 5 6 8 8
1 4 9 8 8 16 3 6 3 5 9 4 7 2 7 24 17 12 14 15 17 14 14 14 14 13 9 9 9 8 10 7 8 10 11 11 11 9 7 7 9 8 7 7
2 2 1 3 8 10 11 5 3 3 3 3 5 4 4 18 22 11 15 14 16 19 17 12 15 14 11 9 11 9 12 9 9 11 12 15 15 12 9 7 7 5 5 5
4 1 0 1 4 9 13 3 2 2 1 1 4 5 5 6 4 8 16 17 14 16 18 19 14 14 12 11 11 9 10 10 9 12 11 11 12 12 11 8 6 5 4 4
2 3 1 2 1 6 6 6 1 4 2 2 3 5 3 5 3 2 6 14 17 16 15 14 13 12 12 12 11 9 10 11 10 12 12 11 11 7 7 7 5 5 4 4
3 1 3 3 4 2 4 2 3 5 1 2 1 3 5 5 5 14 12 17 16 16 14 17 14 11 11 10 9 8 11 10 10 11 11 11 9 10 9 8 7 5 4 5
3 2 3 3 4 1 3 6 3 3 2 3 2 2 2 5 6 13 12 14 14 14 15 13 12 12 9 10 8 8 10 10 9 10 9 8 9 8 7 7 6 6 5 5
1 3 4 2 6 3 3 1 5 4 3 2 3 2 1 3 11 12 12 12 14 14 13 12 10 10 10 8 7 8 8 10 8 8 8 8 7 6 6 6 5 5 5 5
7 2 2 3 1 1 4 3 1 3 3 1 2 3 3 5 9 14 13 13 12 13 13 13 12 11 11 9 8 8 8 9 7 6 7 6 6 7 6 6 6 6 6 5
7 4 3 2 3 3 0 2 2 3 2 1 3 4 5 8 10 11 15 11 11 11 11 10 12 12 11 10 9 10 9 9 8 8 7 6 5 6 6 6 6 6 5 5
2 4 2 3 3 3 0 2 0 5 2 2 2 4 2 6 10 10 11 12 11 11 12 12 12 12 11 9 7 5 5 6 7 7 6 6 6 6 6 6 5 5 5 5
1 1 1 1 1 3 1 3 4 4 4 2 3 2 4 7 10 10 12 12 12 10 11 12 11 9 7 7 7 6 6 6 7 7 7 7 6 6 6 5 5 4 4 4
7 2 2 2 3 7 2 2 4 4 2 4 2 3 3 6 9 10 12 13 12 12 13 12 12 10 10 9 7 7 6 6 7 7 6 6 6 6 6 6 6 5 5 4
7 3 2 4 1 6 5 6 7 5 7 5 2 3 2 5 9 11 11 11 12 12 13 13 13 12 10 9 9 9 8 6 6 6 6 6 6 6 6 6 5 5 5 4
5 5 2 2 2 2 4 2 2 7 6 3 4 3 2 4 4 6 7 10 10 12 12 11 10 8 8 7 8 8 8 7 7 6 6 6 6 6 6 6 6 5 4 5
9 3 2 1 2 5 1 2 5 5 5 1 6 4 2 4 4 4 4 3 8 8 7 7 8 7 7 8 8 8 7 7 7 7 6 6 7 7 6 6 6 5 4 4
9 7 3 1 3 4 1 1 3 2 2 2 2 6 7 4 3 1 4 5 7 6 3 6 7 5 8 6 8 8 7 6 7 6 7 6 6 6 6 6 6 4 4 5
6 5 9 2 3 6 4 6 5 3 3 4 3 5 6 3 2 5 5 6 4 4 6 5 6 5 4 6 6 6 6 9 5 6 6 5 6 6 6 5 4 4 4 3
6 6 5 2 2 4 5 6 2 1 5 4 4 3 6 7 6 6 6 6 6 6 5 5 6 4 4 6 6 6 7 3 3 4 5 5 5 4 4 5 2 2 4 5
2 3 5 4 4 1 4 2 2 1 2 4 3 4 9 7 5 5 5 6 6 5 4 3 4 3 1 1 3 4 4 5 4 4 5 5 4 4 4 5 6 3 4 5
3 1 3 4 4 2 3 2 3 4 3 3 3 5 5 8 7 7 6 5 4 3 3 2 3 2 2 2 2 4 3 5 5 5 5 3 5 6 5 4 5 6 6 7
3 3 3 2 1 3 5 4 4 6 7 9 8 6 8 9 7 6 5 5 3 3 1 1 1 2 4 2 4 4 4 5 5 6 6 5 5 5 5 8 7 8 9 9
3 2 3 3 1 1 2 3 5 7 6 6 7 8 8 8 8 6 6 3 3 4 3 3 4 3 5 4 5 5 4 5 4 5 4 6 6 5 6 7 7 18 19 17
Wind_Direction
219 194 194 173 171 212 262 234 264 192 180 203 197 221 187 214 162 151 157 156 173 195 144 159 157 157 151 151 152 154 150 165 156 132 121 113 100 86 67 62 58 54 50 53
216 225 169 148 165 35 306 263 242 194 199 187 178 209 238 193 187 170 162 159 170 170 179 194 172 162 159 156 159 160 164 163 166 144 133 116 117 90 85 72 59 54 57 51
256 197 182 165 135 119 264 288 241 229 161 172 161 215 228 243 212 167 166 161 176 170 184 196 166 159 148 147 160 164 161 160 139 113 108 99 99 93 81 62 66 47 57 58
238 8 170 160 156 157 225 188 315 268 180 151 181 188 196 225 204 178 161 168 182 173 177 175 135 102 100 94 93 96 90 110 119 128 125 132 126 123 93 96 86 68 57 60
105 14 163 175 177 165 227 132 212 347 179 148 168 122 177 208 212 190 175 168 174 170 150 135 113 106 93 86 92 82 81 64 102 114 117 117 111 111 116 107 96 76 57 55
36 198 257 12 162 131 161 182 139 81 80 199 204 137 216 189 197 175 176 169 159 142 119 110 112 105 96 86 75 76 77 57 85 107 115 121 123 125 124 118 105 94 73 54
234 141 148 99 130 179 180 99 135 132 149 126 173 134 253 316 101 178 175 173 152 134 127 137 129 123 115 103 85 78 87 72 72 86 91 103 112 116 118 118 119 113 99 77
117 65 125 180 275 148 189 151 81 3 112 84 77 174 230 322 53 35 166 131 125 121 125 120 117 118 107 105 101 100 101 96 91 96 95 93 95 98 93 91 96 95 95 91
35 39 142 46 356 316 164 101 154 118 15 109 47 236 254 124 93 80 100 120 125 126 121 124 115 102 104 103 105 122 117 104 101 101 104 101 104 109 109 105 105 102 112 110
340 22 356 68 292 139 195 141 107 25 123 110 186 246 171 167 134 120 119 120 119 113 113 111 106 110 109 111 122 130 117 115 110 107 107 110 114 104 98 92 107 130 118 104
353 5 337 55 28 350 32 89 52 97 91 87 121 293 44 265 166 151 130 124 125 120 119 117 119 119 116 116 124 118 113 117 110 104 104 105 106 112 119 133 130 109 103 105
0 30 41 53 43 290 296 345 67 109 217 127 138 300 327 274 156 136 126 130 127 127 131 131 128 126 132 138 138 135 132 124 119 121 115 118 138 155 120 116 116 106 106 97
340 326 10 143 137 167 40 326 348 71 59 40 101 231 341 77 106 121 128 129 125 122 123 127 134 144 150 155 160 157 157 150 146 136 136 148 146 116 127 114 112 116 123 119
297 328 119 22 45 305 241 275 342 91 59 171 201 163 223 100 113 119 125 130 132 139 145 149 154 160 165 169 155 156 143 140 146 143 145 149 154 140 125 119 130 131 137 135
15 342 61 124 355 306 313 275 192 152 154 118 288 83 182 148 148 148 135 135 141 150 159 166 168 160 156 159 164 155 151 153 165 156 161 166 133 117 115 128 139 136 147 153
339 271 328 219 270 264 218 266 239 203 22 278 164 102 296 134 116 141 155 156 162 166 168 174 179 174 178 179 174 166 161 167 168 171 168 144 132 130 142 153 157 166 166 158
341 317 25 263 331 315 331 206 171 153 156 279 180 165 135 131 151 161 164 172 173 174 173 183 188 186 185 186 172 176 170 161 177 168 158 156 152 150 162 161 168 182 188 166
313 311 51 266 53 349 235 353 211 159 152 187 90 126 126 144 105 143 174 172 176 176 180 184 183 181 178 168 168 154 157 170 172 177 168 162 155 163 174 171 186 194 182 185
217 303 254 168 208 277 152 197 160 161 185 290 152 140 119 125 109 90 63 141 168 164 169 178 175 174 163 170 159 150 159 171 176 187 181 169 169 181 182 186 196 189 182 192
199 239 306 239 131 187 318 289 344 276 158 11 199 158 155 174 112 126 49 60 66 62 90 173 165 149 156 152 146 157 174 178 204 184 190 181 181 187 191 199 189 178 189 207
166 198 220 194 267 295 328 307 303 77 222 337 325 151 141 112 99 124 94 62 68 61 56 66 80 116 134 127 138 172 174 209 198 181 184 185 188 190 195 187 170 170 195 203
167 157 191 104 48 305 356 310 109 282 319 335 353 69 87 99 97 95 104 94 87 84 71 77 111 129 147 157 163 189 211 184 170 158 172 183 180 186 180 169 155 168 184 206
163 199 168 160 204 267 305 348 342 342 316 350 43 72 120 122 113 99 85 72 66 73 68 49 108 117 127 147 167 187 235 163 161 155 185 189 184 182 168 175 192 203 192 209
294 271 87 83 352 23 349 17 6 24 70 24 83 103 97 111 93 90 87 81 76 67 56 51 89 95 274 243 230 218 198 164 162 199 207 189 195 206 204 203 202 206 205 219
230 12 145 78 20 102 29 31 26 51 62 70 49 66 93 98 87 101 94 84 86 88 47 64 163 233 267 258 249 236 208 155 192 215 213 216 212 205 212 220 214 219 222 211
349 351 77 211 21 105 96 41 42 67 60 54 85 63 48 72 92 95 81 58 50 37 3 358 347 332 297 303 282 271 211 188 198 233 219 219 215 213 221 225 246 241 240 237